| time (UTC) | temp F | wind direction | speed MPH | gust MPH | rain 1hr in | rain 24hr in | rain mn in | humidity % | barometer mb |
| 20260508092823 | 44 | 211 | 0.0 | 0.0 | 0.00 | 0.00 | 0.00 | 85 | 1014.7 |
| 20260508091823 | 44 | 211 | 0.0 | 0.0 | 0.00 | 0.00 | 0.00 | 85 | 1014.9 |
| 20260508090843 | 44 | 211 | 0.0 | 0.0 | 0.00 | 0.00 | 0.00 | 84 | 1014.9 |
| 20260508085824 | 43 | 212 | 0.0 | 0.0 | 0.00 | 0.00 | 0.00 | 84 | 1014.9 |
| 20260508050822 | 44 | 214 | 0.0 | 0.0 | 0.00 | 0.00 | 0.00 | 79 | 1015.2 |
| 20260508045822 | 44 | 212 | 0.0 | 0.0 | 0.00 | 0.00 | 0.00 | 78 | 1015.2 |
| 20260508044822 | 44 | 213 | 0.0 | 0.0 | 0.00 | 0.00 | 0.00 | 78 | 1015.3 |
| 20260508043821 | 44 | 211 | 0.0 | 0.0 | 0.00 | 0.00 | 0.00 | 78 | 1015.0 |
| 20260508042822 | 44 | 214 | 0.0 | 0.0 | 0.00 | 0.00 | 0.00 | 77 | 1015.0 |
| 20260508041821 | 44 | 213 | 0.0 | 0.0 | 0.00 | 0.00 | 0.00 | 78 | 1015.1 |
| 20260508040821 | 45 | 212 | 0.0 | 0.0 | 0.00 | 0.00 | 0.00 | 78 | 1015.0 |
| 20260508035821 | 45 | 211 | 0.0 | 0.0 | 0.00 | 0.00 | 0.00 | 78 | 1015.0 |
| 20260507233819 | 60 | 283 | 0.0 | 3.0 | 0.00 | 0.00 | 0.00 | 42 | 1014.3 |
| 20260507232819 | 61 | 312 | 0.0 | 2.0 | 0.00 | 0.00 | 0.00 | 41 | 1014.3 |
| 20260507231839 | 61 | 295 | 0.0 | 1.0 | 0.00 | 0.00 | 0.00 | 44 | 1014.3 |
| 20260507191818 | 63 | 271 | 0.0 | 4.0 | 0.00 | 0.00 | 0.00 | 48 | 1014.8 |
| 20260507190818 | 61 | 360 | 3.0 | 4.0 | 0.00 | 0.00 | 0.00 | 46 | 1014.9 |
| 20260507185818 | 60 | 20 | 2.0 | 3.0 | 0.00 | 0.00 | 0.00 | 46 | 1015.1 |
| 20260507184818 | 62 | 28 | 2.0 | 6.0 | 0.00 | 0.00 | 0.00 | 48 | 1015.1 |
| 20260507183818 | 61 | 321 | 0.0 | 8.0 | 0.00 | 0.00 | 0.00 | 44 | 1015.0 |
| 20260507182817 | 61 | 343 | 3.0 | 6.0 | 0.00 | 0.00 | 0.00 | 49 | 1015.3 |
| 20260507181818 | 60 | 296 | 2.0 | 5.0 | 0.00 | 0.00 | 0.00 | 48 | 1015.3 |
| 20260507180817 | 60 | 340 | 6.0 | 9.0 | 0.00 | 0.00 | 0.00 | 48 | 1015.4 |
| 20260507175817 | 60 | 50 | 1.0 | 8.0 | 0.00 | 0.00 | 0.00 | 48 | 1015.5 |
| 20260507174817 | 59 | 305 | 2.0 | 7.0 | 0.00 | 0.00 | 0.00 | 47 | 1015.7 |
| 20260507173817 | 59 | 36 | 3.0 | 7.0 | 0.00 | 0.00 | 0.00 | 50 | 1015.8 |
| 20260507172817 | 59 | 360 | 3.0 | 8.0 | 0.00 | 0.00 | 0.00 | 48 | 1015.9 |
| 20260507171817 | 59 | 286 | 3.0 | 4.0 | 0.00 | 0.00 | 0.00 | 49 | 1016.1 |
| 20260507170817 | 58 | 335 | 1.0 | 5.0 | 0.00 | 0.00 | 0.00 | 47 | 1016.2 |
| 20260507165817 | 58 | 312 | 2.0 | 6.0 | 0.00 | 0.00 | 0.00 | 47 | 1016.3 |
| 20260507164817 | 58 | 266 | 4.0 | 4.0 | 0.00 | 0.00 | 0.00 | 49 | 1016.2 |
| 20260507163817 | 58 | 289 | 4.0 | 5.0 | 0.00 | 0.00 | 0.00 | 45 | 1016.4 |
| 20260507162817 | 58 | 242 | 4.0 | 5.0 | 0.00 | 0.00 | 0.00 | 46 | 1016.4 |
| 20260507161817 | 58 | 286 | 2.0 | 11.0 | 0.00 | 0.00 | 0.00 | 48 | 1016.5 |
| 20260507160817 | 57 | 340 | 0.0 | 4.0 | 0.00 | 0.00 | 0.00 | 47 | 1016.6 |